Fort Leonard Wood, MO

8:21 AM CDT on October 18, 2019 (GMT -0500)
Waynesville Regional At Forney Field

Weather History for KTBN - May, 2019

Change the Weather History Date:

Tuesday, May 7, 2019

  Actual Average Record
Temperature  
Mean Temperature 68 °F -  
Max Temperature 79 °F 72 °F 86 °F (2004)
Min Temperature 57 °F 54 °F 43 °F (2017)
Cooling Degree Days 3    
Growing Degree Days 18 (Base 50)    
Moisture  
Dew Point 59 °F    
Average Humidity 80    
Maximum Humidity 96    
Minimum Humidity 51    
Precipitation  
Precipitation 0.49 in - - ()
Sea Level Pressure  
Sea Level Pressure 30.02 in    
Wind  
Wind Speed 7 mph (ESE)    
Max Wind Speed 20 mph    
Max Gust Speed 24 mph    
Visibility 9 miles    
Events Rain , Thunderstorm    
Averages and records for this station are not official NWS values.
T = Trace of Precipitation, MM = Missing Value Source: NWS Daily Summary

Daily Weather History Graph

Daily Weather History Graph

Search for Another Location

Airport or City:

Astronomy

May. 07, 2019 Rise Set
Actual Time 6:06 AM CDT 8:04 PM CDT
Civil Twilight 5:37 AM CDT 8:33 PM CDT
Nautical Twilight 5:02 AM CDT 9:08 PM CDT
Astronomical Twilight 4:25 AM CDT 9:45 PM CDT
Moon 8:14 AM CDT (5/7) 11:03 PM CDT (5/7)
Length of Visible Light 14h 55m
Length of Day
13h 57m
Waxing Crescent, 9% of the Moon is Illuminated
May 7
Waxing Crescent
May 11
First Quarter
May 18
Full
May 26
Last Quarter
Jun 3
New

Hourly Weather History & Observations

Time (CDT) Temp. Dew Point Humidity Pressure Visibility Wind Dir Wind Speed Gust Speed Precip Events Conditions
12:56 AM 57.0 °F 55.6 °F 95% 30.04 in 10.0 mi ENE 3.5 mph - N/A   Clear
1:56 AM 57.6 °F 56.1 °F 95% 30.07 in 10.0 mi West 8.1 mph - N/A   Mostly Cloudy
2:29 AM 59.0 °F 57.2 °F 94% 30.06 in 10.0 mi SW 5.8 mph - N/A Rain , Thunderstorm Light Thunderstorms and Rain
2:51 AM 59.0 °F 57.2 °F 94% 30.04 in 5.0 mi SSW 5.8 mph - N/A Rain , Thunderstorm Rain
2:56 AM 58.6 °F 57.6 °F 96% 30.04 in 7.0 mi SW 6.9 mph - 0.07 in Rain , Thunderstorm Light Rain
3:20 AM 59.0 °F 57.2 °F 94% 30.04 in 4.0 mi SW 4.6 mph - N/A Rain , Thunderstorm Thunderstorms and Rain
3:49 AM 59.0 °F 57.2 °F 94% 30.07 in 7.0 mi SW 11.5 mph - N/A Rain Rain
3:56 AM 58.6 °F 57.6 °F 96% 30.07 in 8.0 mi SSW 12.7 mph - 0.14 in Rain Light Rain
4:56 AM 57.9 °F 56.8 °F 96% 30.04 in 10.0 mi SE 8.1 mph - 0.03 in   Light Drizzle
5:02 AM 59.0 °F 57.2 °F 94% 30.03 in 10.0 mi SE 11.5 mph - N/A   Clear
5:56 AM 57.6 °F 56.5 °F 96% 29.99 in 10.0 mi SE 8.1 mph - 0.01 in   Clear
6:56 AM 57.4 °F 56.3 °F 96% 30.09 in 10.0 mi NW 6.9 mph - N/A   Scattered Clouds
7:56 AM 59.9 °F 58.8 °F 96% 30.11 in 10.0 mi Calm Calm - N/A   Clear
8:56 AM 61.9 °F 59.2 °F 91% 30.11 in 10.0 mi NNW 5.8 mph - N/A   Partly Cloudy
9:26 AM 64.4 °F 59.0 °F 83% 30.11 in 10.0 mi NW 6.9 mph - N/A   Mostly Cloudy
9:41 AM 64.4 °F 59.0 °F 83% 30.11 in 10.0 mi North 5.8 mph - N/A   Mostly Cloudy
9:56 AM 65.3 °F 59.7 °F 82% 30.10 in 10.0 mi North 6.9 mph - N/A   Partly Cloudy
10:56 AM 68.2 °F 58.8 °F 72% 30.09 in 10.0 mi NE 4.6 mph - N/A   Partly Cloudy
11:56 AM 71.6 °F 59.0 °F 64% 30.11 in 10.0 mi Calm Calm - N/A   Scattered Clouds
12:56 PM 72.5 °F 60.1 °F 65% 30.09 in 10.0 mi Calm Calm - N/A   Scattered Clouds
1:56 PM 73.9 °F 60.1 °F 62% 30.05 in 10.0 mi SSE 4.6 mph - N/A   Scattered Clouds
2:56 PM 76.6 °F 59.7 °F 56% 30.04 in 10.0 mi SE 9.2 mph - N/A   Clear
3:56 PM 77.5 °F 60.1 °F 55% 30.02 in 10.0 mi ESE 3.5 mph - N/A   Clear
4:56 PM 79.0 °F 59.2 °F 51% 29.99 in 10.0 mi SE 5.8 mph - N/A   Partly Cloudy
5:56 PM 77.0 °F 60.6 °F 57% 29.98 in 10.0 mi East 8.1 mph - N/A   Scattered Clouds
6:56 PM 77.2 °F 60.3 °F 56% 29.97 in 10.0 mi ESE 6.9 mph - N/A   Clear
8:56 PM 71.2 °F 60.4 °F 69% 29.97 in 10.0 mi East 3.5 mph - N/A   Clear
9:40 PM 71.6 °F 60.8 °F 69% 29.95 in 10.0 mi East 5.8 mph - N/A Rain Light Rain
9:48 PM 71.6 °F 60.8 °F 69% 29.95 in 10.0 mi ESE 5.8 mph - N/A   Overcast
9:49 PM 71.6 °F 60.8 °F 69% 29.95 in 10.0 mi ESE 5.8 mph - N/A Rain Light Rain
9:56 PM 70.5 °F 62.2 °F 75% 29.97 in 7.0 mi South 11.5 mph 19.6 mph 0.10 in Rain Heavy Rain
10:01 PM 68.0 °F 62.6 °F 83% 29.95 in 2.2 mi ENE 10.4 mph 19.6 mph N/A Rain , Thunderstorm Heavy Rain
10:06 PM 68.0 °F 62.6 °F 83% 29.95 in 6.0 mi ESE 8.1 mph 19.6 mph N/A Rain , Thunderstorm Light Rain
10:11 PM 69.8 °F 62.6 °F 78% 29.95 in 10.0 mi SE 19.6 mph 24.2 mph N/A Thunderstorm Mostly Cloudy
10:13 PM 69.8 °F 62.6 °F 78% 29.95 in 10.0 mi ESE 15.0 mph 24.2 mph N/A Thunderstorm Thunderstorm
10:28 PM 68.0 °F 62.6 °F 83% 29.95 in 10.0 mi East 11.5 mph - N/A   Mostly Cloudy
10:56 PM 67.6 °F 63.0 °F 85% 29.95 in 10.0 mi East 11.5 mph - 0.14 in   Mostly Cloudy
11:56 PM 65.8 °F 62.2 °F 88% 29.95 in 10.0 mi ESE 8.1 mph - N/A   Mostly Cloudy